Content
SEND FEEDBACK

Daily
Averages
Monthly
Summary
United States of America

NAPERVILLE, ILLINOIS


Home > North America > United States > Illinois
Elevation: 687 feet     Latitude: 41 49N     Longitude: 088 04W

WEATHER
 
SELECT A DAY
Number of Records: 196,786;   Date Range: 1/1/95 - 9/18/14
 
SHARE

PRINT THIS DATA

[ ← Previous Day ]
WEATHER ALMANAC - JANUARY 1, 2013
[ Next Day → ]
[ °C ]   °F
Weather ElementAverageHighLow
Temperature16.8 °F24.1 °F (1:51 pm)10.9 °F (11:51 pm)
Dewpoint4.4 °F8.1 °F (1:51 am)1 °F (12:51 pm)
Humidity59.2 %71 % (5:51 am)38 % (1:51 pm)
Barometer30.19 in30.22 in (7:51 am)30.14 in (1:51 am)
Wind Speed8.6 mph13.8 mph (3:51 am)
Wind Gust20.7 mph (9:51 am)
Weather ElementAverage
Visibility10 mi
Wind DirectionWNW (287.8 °)

Weather ElementTotal
Precipitation---
Heating Degree Days47.5 (Base 65)
Averaged from 23 records on January 1, 2013
WEATHER CONDITIONS BREAKOUT
WIND DIRECTION BREAKOUT
WEATHER BY HOUR - JANUARY 1, 2013
[ °C ]   °F
Local TimeTemperatureDewpointHumidityBarometerVisibilityWind DirectionWind SpeedGust SpeedPrecipitationEventsConditions
1:51 AM19.0 °F8.1 °F62 %30.14 in10.0 miNNW (330°)10.4 mphOvercast
2:51 AM18.0 °F8.1 °F65 %30.15 in10.0 miNNW (340°)11.5 mphMostly Cloudy
3:51 AM16.0 °F7.0 °F68 %30.15 in10.0 miNNW (340°)13.8 mphScattered Clouds
4:51 AM15.1 °F6.1 °F68 %30.16 in10.0 miNW (320°)12.7 mphClear
5:51 AM14.0 °F6.1 °F71 %30.19 in10.0 miNNW (330°)8.1 mphClear
6:51 AM12.9 °F5.0 °F71 %30.20 in10.0 miNNW (330°)8.1 mphPartly Cloudy
7:51 AM12.9 °F3.9 °F67 %30.22 in10.0 miNW (320°)9.2 mphScattered Clouds
8:51 AM14.0 °F5.0 °F67 %30.21 in10.0 miNorth (350°)12.7 mphScattered Clouds
9:51 AM17.1 °F5.0 °F59 %30.22 in10.0 miNorth (10°)11.5 mph20.7 mphScattered Clouds
10:51 AM19.0 °F3.9 °F52 %30.22 in10.0 miVariable4.6 mphScattered Clouds
11:51 AM21.0 °F3.0 °F46 %30.21 in10.0 miNW (320°)6.9 mphScattered Clouds
12:51 PM23.0 °F1.0 °F39 %30.19 in10.0 miNorth (360°)5.8 mph0.00 inScattered Clouds
1:51 PM24.1 °F1.9 °F38 %30.17 in10.0 miNNW (340°)8.1 mphScattered Clouds
2:51 PM24.1 °F3.0 °F40 %30.17 in10.0 miNNW (330°)8.1 mphClear
3:51 PM21.9 °F6.1 °F51 %30.17 in10.0 miWNW (300°)10.4 mphClear
4:51 PM19.0 °F6.1 °F57 %30.18 in10.0 miNW (310°)10.4 mphClear
5:51 PM17.1 °F3.9 °F56 %30.20 in10.0 miWNW (300°)8.1 mphClear
6:51 PM15.1 °F3.9 °F61 %30.22 in10.0 miWNW (290°)6.9 mphClear
7:51 PM14.0 °F3.9 °F64 %30.21 in10.0 miWest (280°)8.1 mphClear
8:51 PM12.9 °F3.9 °F67 %30.21 in10.0 miWest (280°)6.9 mphClear
9:51 PM12.9 °F1.9 °F62 %30.20 in10.0 miWNW (290°)6.9 mphClear
10:51 PM12.0 °F1.9 °F64 %30.20 in10.0 miWNW (290°)5.8 mphClear
11:51 PM10.9 °F1.9 °F67 %30.19 in10.0 miWest (260°)3.5 mphClear
Hourly data recorded from KORD, located miles away from Naperville, Illinois







STORIES FROM OUR PARTNERS